www.pogodaiklimat.ru

Погода и климат >> Архив погоды >> Венгрия >> Кечкемет


ПОГОДА в Кечкемете

  • Прогноз погоды в Кечкемете
  • Монитор погоды в Кечкемете

АРХИВ ПОГОДЫ в Кечкемете

Время (UTC), дата Ветер
(напр.,м/с)
 
Видим.   Явления Облачность Т
(С)
Тd
(С)
f
(%)
Тe
(С)
Тes
(С)
Комфортность P
(гПа)
Po
(гПа)
Тmin
(С)
Tmax
(С)
R
(мм)
R24
(мм)
S
(см)
13 9.06 С 2 н/о н/о +28.7 +18.5 54 +34 +34 очень
душно
1020.7 1007.5
14 9.06 В 2 н/о н/о +28.9 +17.8 51 +33 +33 очень
душно
1020.2 1007.0
15 9.06 ЮВ 2 30 км 3/3 1500 м
[Cu hum]
+28.9 +17.1 49 +33 +33 очень
душно
1019.8 1006.6
16 9.06 В 2 н/о н/о +28.6 +17.5 51 +33 +33 очень
душно
1019.3 1006.1
17 9.06 В 2 н/о н/о +27.9 +18.0 55 +32 +32 душно 1019.2 1005.9
18 9.06 В 2 30 км ясно +26.1 +18.5 63 +31 +31 очень
душно
1019.2 1005.9 +29.3 0
19 9.06 штиль 0 н/о н/о +23.3 +19.5 79 +30 +30 очень
душно
1019.7 1006.2
20 9.06 СВ 1 н/о н/о +20.9 +19.0 89 +26 +26 душно 1020.0 1006.4
21 9.06 СВ 2 н/о н/о +20.9 +19.2 90 +26 +26 душно 1019.9 1006.3
22 9.06 СВ 2 н/о н/о +21.4 +18.2 82 +26 +26 душно 1019.9 1006.3
23 9.06 СВ 3 н/о н/о +21.3 +18.5 84 +26 +26 душно 1019.9 1006.3
00 10.06 В 3 н/о н/о +20.7 +18.3 86 +25 +25 комфорт 1019.5 1005.9
01 10.06 СВ 3 н/о н/о +19.9 +17.9 88 +23 +23 комфорт 1019.3 1005.7
02 10.06 СВ 3 н/о н/о +19.1 +17.4 90 +21 +21 комфорт 1019.0 1005.4
03 10.06 С 2 10 км 4/0
[Ac lent Ci sp]
+18.4 +17.1 92 +20 +20 1018.7 1005.0
04 10.06 СВ 2 н/о н/о +19.2 +17.5 90 +22 +22 комфорт 1018.7 1005.1
05 10.06 СВ 3 н/о н/о +21.0 +18.0 83 +26 +26 душно 1018.7 1005.1
06 10.06 В 3 15 км 4/0
[Ci sp]
+22.5 +18.3 77 +28 +28 душно 1018.4 1004.9 +18.2 0
07 10.06 В 2 н/о н/о +24.2 +19.5 75 +29 +29 душно 1017.9 1004.5
08 10.06 СВ 2 н/о н/о +25.8 +19.9 70 +32 +32 очень
душно
1017.6 1004.3
09 10.06 В 3 30 км 5/0
[Ci sp]
+27.2 +20.1 65 +33 +33 очень
душно
1017.2 1003.9
10 10.06 ЮВ 2 н/о н/о +28.1 +19.9 61 +34 +34 очень
душно
1016.8 1003.6
11 10.06 ЮВ 2 н/о н/о +29.7 +19.1 53 +35 +35 очень
душно
1016.2 1003.1
12 10.06 В 4
{7}
40 км 6/5 1300 м
[Cu hum Ci sp]
+30.2 +18.0 48 +35 +35 очень
душно
1015.7 1002.6
13 10.06 ЮВ 4 н/о н/о +29.9 +16.7 45 +33 +33 душно 1015.1 1002.0
14 10.06 Ю 3
{7}
н/о н/о +30.6 +17.3 45 +35 +35 очень
душно
1014.5 1001.4
15 10.06 ЮВ 3 40 км 4/4 1500 м
[Cu hum Ci sp]
+30.2 +15.9 42 +33 +33 душно 1014.1 1001.0
16 10.06 В 4 н/о н/о +29.6 +16.8 46 +33 +33 душно 1013.6 1000.5
17 10.06 ЮВ 2 н/о н/о +28.9 +17.4 50 +33 +33 очень
душно
1013.2 1000.1
18 10.06 ЮВ 2 н/о н/о +26.6 +18.2 60 +31 +31 душно 1013.5 1000.3 +30.7
19 10.06 В 2 н/о н/о +24.8 +18.0 66 +29 +29 душно 1013.9 1000.6
20 10.06 В 2 н/о н/о +23.7 +17.2 67 +28 +28 душно 1014.0 1000.6
21 10.06 В 2 30 км 1/0
[Ci sp]
+21.2 +18.0 82 +25 +25 комфорт 1013.7 1000.2
22 10.06 штиль 0 н/о н/о +21.5 +18.1 81 +26 +26 душно 1013.5 1000.0
23 10.06 штиль 0 н/о н/о +19.5 +18.0 91 +22 +22 комфорт 1013.8 1000.2
00 11.06 штиль 0 н/о н/о +18.8 +17.5 92 +20 +20 1013.6 1000.0
01 11.06 В 1 н/о н/о +18.2 +17.4 95 +20 +20 1013.3 999.7
02 11.06 В 2 н/о н/о +17.7 +17.1 96 +18 +18 1013.2 999.6
03 11.06 В 2 н/о н/о +17.9 +17.1 95 +18 +18 1013.3 999.7
04 11.06 В 2 н/о н/о +19.7 +18.4 92 +23 +23 комфорт 1013.3 999.8
05 11.06 В 2 н/о н/о +21.8 +18.0 79 +26 +26 душно 1013.6 1000.1
06 11.06 ЮВ 3 40 км ясно +23.4 +17.8 71 +29 +29 душно 1013.9 1000.5 +17.3 0
07 11.06 В 2 н/о н/о +24.8 +18.3 67 +29 +29 душно 1014.0 1000.7
08 11.06 В 4
{7}
н/о н/о +26.0 +17.4 59 +30 +30 душно 1013.9 1000.6
09 11.06 В 5
{7}
40 км 1/1 1200 м
[Cu hum]
+27.3 +18.0 57 +32 +32 очень
душно
1013.9 1000.7
10 11.06 В 5
{8}
н/о н/о +27.9 +18.3 56 +33 +33 очень
душно
1013.7 1000.5
11 11.06 ЮВ 4
{9}
н/о н/о +28.4 +17.9 53 +33 +33 очень
душно
1013.4 1000.2
12 11.06 ЮВ 4
{8}
40 км 3/3 1350 м
[Cu hum]
+29.1 +18.5 53 +34 +34 очень
душно
1012.8 999.7
13 11.06 Ю 4
{7}
н/о н/о +29.8 +16.9 46 +33 +33 душно 1012.6 999.5
14 11.06 ЮВ 4
{8}
н/о н/о +30.1 +17.2 46 +34 +34 очень
душно
1012.4 999.3
15 11.06 ЮВ 4
{7}
35 км 5/4 1200 м
[Cb calv Ci ing]
+30.0 +16.8 45 +34 +34 очень
душно
1012.3 999.2
16 11.06 ЮВ 4
{7}
н/о н/о +29.0 +16.9 48 +33 +33 очень
душно
1011.8 998.7
17 11.06 ЮВ 4
{9}
н/о н/о +27.2 +16.2 51 +31 +31 душно 1012.5 999.3
18 11.06 Ю 3
{7}
40 км 6/0
[Ci sp]
+25.1 +15.7 56 +28 +28 жарко 1013.2 999.9 +30.3 0
19 11.06 В 1 н/о н/о +23.8 +15.8 61 +27 +27 жарко 1014.1 1000.7
20 11.06 ЮВ 1 н/о н/о +21.6 +17.0 75 +26 +26 душно 1014.1 1000.6
21 11.06 штиль 0 30 км 1/0
[Ci sp]
+21.7 +16.4 72 +26 +26 душно 1014.3 1000.8
22 11.06 В 2 н/о н/о +20.3 +17.1 82 +24 +24 комфорт 1014.4 1000.9
23 11.06 ЮВ 2 н/о н/о +20.1 +17.9 87 +24 +24 комфорт 1014.5 1001.0
00 12.06 ЮВ 1 н/о н/о +19.6 +17.9 90 +23 +23 комфорт 1014.7 1001.1
01 12.06 штиль 0 н/о н/о +18.9 +18.2 96 +20 +20 1014.5 1000.9
02 12.06 ЮВ 2 н/о н/о +18.3 +18.1 99 +19 +19 1014.0 1000.4
03 12.06 В 2 30 км 3/0
[Ci sp]
+17.7 +17.4 98 +18 +18 1013.8 1000.2
04 12.06 В 2 н/о н/о +19.1 +18.6 97 +22 +22 комфорт 1013.8 1000.2
05 12.06 ЮВ 1 н/о н/о +22.2 +19.2 83 +28 +28 душно 1013.9 1000.5
06 12.06 ЮВ 3 40 км 1/0
[Ac lent Ci sp]
+24.7 +18.6 69 +29 +29 душно 1014.1 1000.8 +17.6 0
07 12.06 В 2 н/о н/о +26.0 +18.2 62 +31 +31 очень
душно
1014.9 1001.6
08 12.06 Ю 1 н/о н/о +27.5 +19.0 60 +33 +33 очень
душно
1015.0 1001.8
09 12.06 В 4
{7}
н/о н/о +28.4 +17.0 50 +32 +32 душно 1014.6 1001.4
10 12.06 ЮВ 4
{7}
н/о н/о +29.2 +17.7 50 +34 +34 очень
душно
1014.2 1001.1
11 12.06 ЮВ 4
{8}
н/о н/о +29.7 +16.9 46 +33 +33 душно 1014.0 1000.9
12 12.06 Ю 4
{8}
30 км 1/1 1500 м
[Cu hum]
+30.4 +16.4 43 +34 +34 очень
душно
1013.4 1000.3
13 12.06 ЮВ 4
{9}
н/о н/о +30.9 +16.9 43 +34 +34 душно 1012.9 999.9
14 12.06 Ю 5
{9}
н/о н/о +30.9 +15.3 39 +33 +33 душно 1012.7 999.7
15 12.06 ЮВ 5
{8}
30 км 1/1 1500 м
[Cu hum Ci sp]
+30.3 +16.3 43 +34 +34 очень
душно
1012.5 999.4
16 12.06 ЮВ 4
{7}
н/о н/о +29.9 +16.7 45 +33 +33 душно 1012.4 999.3
17 12.06 ЮВ 4
{7}
н/о н/о +28.8 +16.7 48 +32 +32 душно 1012.5 999.4
18 12.06 ЮВ 2 30 км ясно +26.9 +17.1 55 +31 +31 душно 1012.8 999.6 +31.4 0
19 12.06 ЮВ 2 н/о н/о +25.1 +17.1 61 +29 +29 душно 1013.0 999.7
20 12.06 ЮВ 1 н/о н/о +24.0 +16.3 62 +27 +27 жарко 1013.5 1000.1
21 12.06 ЮВ 3 н/о н/о +23.1 +16.4 66 +28 +28 душно 1013.6 1000.2
22 12.06 ЮВ 2 н/о н/о +23.5 +16.1 63 +27 +27 душно 1013.5 1000.1
23 12.06 В 2 н/о н/о +21.5 +16.0 71 +25 +25 комфорт 1013.5 1000.0
00 13.06 штиль 0 20 км 1/0
[Ac cast]
+20.0 +16.8 82 +22 +22 комфорт 1013.4 999.9
01 13.06 В 2 н/о н/о +18.3 +17.0 92 +19 +19 1013.4 999.8
02 13.06 В 2 н/о н/о +18.5 +17.3 93 +20 +20 1013.5 999.9
03 13.06 В 2 30 км 1/0
[Ci sp]
+18.4 +16.9 91 +20 +20 1013.6 1000.0
04 13.06 В 1 н/о н/о +19.5 +17.6 89 +23 +23 комфорт 1013.8 1000.2
05 13.06 В 1 н/о н/о +21.9 +17.9 78 +27 +27 душно 1014.1 1000.6
06 13.06 ЮВ 3 30 км ясно +24.4 +17.6 66 +28 +28 душно 1014.1 1000.8 +17.9 0
07 13.06 ЮВ 4 н/о н/о +26.1 +18.0 61 +31 +31 очень
душно
1014.2 1000.9
08 13.06 ЮВ 4 н/о н/о +28.0 +18.4 56 +33 +33 очень
душно
1014.1 1000.9
09 13.06 ЮВ 5
{8}
40 км ясно +29.5 +18.3 51 +34 +34 очень
душно
1014.0 1000.9
10 13.06 ЮВ 6
{8}
н/о н/о +30.4 +18.2 48 +35 +35 очень
душно
1013.8 1000.7
11 13.06 ЮВ 5
{9}
н/о н/о +31.1 +17.4 44 +35 +35 очень
душно
1013.6 1000.6
12 13.06 ЮВ 4
{9}
40 км ясно +32.1 +17.9 43 +36 +36 очень
душно
1013.3 1000.3
13 13.06 ЮВ 5
{9}
н/о н/о +31.8 +17.3 42 +36 +36 очень
душно
1013.1 1000.1
14 13.06 ЮВ 3
{7}
н/о н/о +32.3 +18.1 43 +37 +37 очень
душно
1012.9 999.9
15 13.06 ЮВ 4
{8}
40 км 1/0
[Ci sp]
+31.9 +18.5 45 +37 +37 очень
душно
1012.7 999.7
16 13.06 ЮВ 5
{6}
н/о н/о +31.5 +19.5 49 +37 +37 очень
душно
1012.6 999.6
17 13.06 ЮВ 4 н/о н/о +30.3 +19.7 53 +36 +36 очень
душно
1012.8 999.7
18 13.06 ЮВ 3 40 км 1/1 1500 м
[Cu hum Ci sp]
+28.7 +19.9 59 +35 +35 очень
душно
1012.6 999.5 +32.5 0
19 13.06 ЮВ 2 н/о н/о +26.8 +20.4 68 +33 +33 очень
душно
1012.9 999.7
20 13.06 Ю 1 н/о н/о +25.2 +20.7 76 +31 +31 очень
душно
1013.5 1000.2
21 13.06 В 1 н/о н/о +24.1 +20.6 81 +30 +30 очень
душно
1014.5 1001.1
22 13.06 штиль 0 н/о н/о +22.9 +20.6 87 +30 +30 очень
душно
1015.0 1001.6
23 13.06 штиль 0 н/о н/о +21.7 +21.0 96 +28 +28 душно 1015.2 1001.7
00 14.06 штиль 0 н/о н/о +21.1 +20.6 97 +26 +26 душно 1014.8 1001.3
01 14.06 штиль 0 н/о н/о +20.4 +20.2 99 +24 +24 комфорт 1014.9 1001.4
02 14.06 СЗ 1 н/о н/о +20.0 +19.3 96 +24 +24 комфорт 1015.1 1001.5
03 14.06 З 1 8000 м 3/0
[Ac cast]
+20.2 +19.4 95 +25 +25 комфорт 1015.1 1001.6
04 14.06 СЗ 2 н/о н/о +22.3 +18.9 81 +28 +28 душно 1015.5 1002.0
05 14.06 СЗ 2 н/о н/о +24.8 +17.5 64 +29 +29 душно 1015.7 1002.4
06 14.06 СЗ 4 30 км 1/0
[Ac cast]
+25.7 +16.5 57 +29 +29 душно 1016.4 1003.1 +19.8 0
07 14.06 С 1 н/о н/о +27.5 +16.5 51 +31 +31 душно 1016.6 1003.4
08 14.06 СЗ 2 н/о н/о +28.9 +15.8 45 +32 +32 душно 1016.9 1003.7
09 14.06 Ю 2 30 км 3/0
[Ci sp]
+30.2 +13.9 37 +32 +32 жарко 1016.9 1003.8
10 14.06 ЮВ 2 н/о н/о +31.2 +16.0 40 +34 +34 душно 1017.2 1004.1
11 14.06 Ю 3 н/о н/о +31.8 +16.5 40 +35 +35 очень
душно
1016.9 1003.8
12 14.06 Ю 1 30 км 4/4 1500 м
[Cu hum Ci sp]
+32.2 +16.5 39 +35 +35 очень
душно
1016.3 1003.3
13 14.06 ЮЗ 2 н/о н/о +32.6 +15.6 36 +35 +35 душно 1016.3 1003.3
14 14.06 Ю 3
{7}
н/о н/о +32.9 +15.0 34 +35 +35 душно 1016.0 1003.0
15 14.06 ЮЗ 3 30 км 4/3 2000 м
[Cu hum Ci sp]
+33.2 +12.2 28 +33 +33 жарко 1015.6 1002.6
16 14.06 Ю 2 н/о н/о +32.6 +12.3 29 +33 +33 жарко 1015.5 1002.5
17 14.06 Ю 2 н/о н/о +31.6 +13.8 34 +33 +33 жарко 1015.7 1002.6
18 14.06 З 1 30 км 3/1 1500 м
[Cu med, cong Ac cuf Ci sp]
+29.3 +14.7 41 +32 +32 душно 1016.2 1003.0 +33.4 0
19 14.06 СВ 1 н/о н/о +25.7 +12.2 43 +27 +27 жарко 1016.3 1003.0
20 14.06 штиль 0 н/о н/о +23.9 +14.0 54 +26 +26 жарко 1016.7 1003.3
21 14.06 штиль 0 н/о н/о +21.9 +14.3 62 +25 +25 комфорт 1016.8 1003.3
22 14.06 штиль 0 н/о н/о +20.7 +15.9 74 +24 +24 комфорт 1016.5 1003.0
23 14.06 ЮЗ 1 н/о н/о +20.1 +16.1 78 +24 +24 комфорт 1016.5 1002.9
00 15.06 штиль 0 30 км 5/0
[Ci sp]
+19.8 +16.8 83 +22 +22 комфорт 1016.1 1002.5
01 15.06 штиль 0 н/о н/о +18.5 +16.1 86 +19 +19 1015.9 1002.3
02 15.06 штиль 0 н/о н/о +18.0 +15.8 87 +18 +18 1016.1 1002.4
03 15.06 В 2 30 км ясно +17.4 +15.6 89 +18 +18 1016.2 1002.5
04 15.06 штиль 0 н/о н/о +18.5 +16.3 87 +19 +19 1016.3 1002.7
05 15.06 штиль 0 н/о н/о +22.1 +16.2 69 +26 +26 душно 1016.0 1002.5
06 15.06 ЮВ 1 30 км 1/0
[Ci sp]
+26.0 +16.5 56 +30 +30 душно 1015.7 1002.4 +17.1 0
07 15.06 ЮВ 2 н/о н/о +28.1 +15.4 46 +31 +31 душно 1015.6 1002.4
08 15.06 Ю 3 н/о н/о +29.9 +14.1 38 +32 +32 жарко 1015.5 1002.4
09 15.06 Ю 3
{9}
н/о н/о +30.7 +13.9 36 +32 +32 жарко 1015.3 1002.2
10 15.06 Ю 3 н/о н/о +31.9 +16.6 40 +35 +35 очень
душно
1014.9 1001.9
11 15.06 ЮВ 3 н/о н/о +32.6 +16.4 38 +36 +36 очень
душно
1014.4 1001.4
12 15.06 Ю 3
{7}
30 км 3/1 1500 м
[Cu hum Ci sp]
+33.0 +16.4 37 +36 +36 очень
душно
1013.8 1000.8
13 15.06 Ю 3 н/о н/о +33.5 +15.5 34 +36 +36 очень
душно
1013.0 1000.1
14 15.06 ЮЗ 3 н/о н/о +34.1 +14.1 30 +35 +35 очень
жарко
1012.7 999.8
15 15.06 З 2 30 км 5/1 2000 м
[Cu hum Ci sp]
+32.3 +15.8 37 +35 +35 очень
душно
1012.7 999.7
16 15.06 З 2 н/о н/о +31.6 +16.0 39 +34 +34 душно 1012.7 999.7
17 15.06 В 1 н/о н/о +29.8 +18.9 52 +35 +35 очень
душно
1012.6 999.5
18 15.06 СЗ 1 30 км 6/1 2000 м
[Sc diur, vesp Ci sp]
+27.8 +17.6 54 +32 +32 душно 1012.3 999.1 +34.1 0
19 15.06 штиль 0 н/о н/о +25.3 +18.0 64 +30 +30 душно 1012.4 999.1
20 15.06 В 1 н/о н/о +23.8 +18.2 71 +28 +28 душно 1012.9 999.5
21 15.06 штиль 0 30 км 5/0
[Ci sp]
+22.8 +18.8 78 +29 +29 очень
душно
1012.7 999.3
22 15.06 З 1 н/о н/о +21.8 +19.0 84 +27 +27 душно 1012.4 999.0
23 15.06 штиль 0 н/о н/о +20.5 +18.3 87 +24 +24 комфорт 1012.6 999.1
00 16.06 штиль 0 н/о н/о +19.8 +18.5 92 +22 +22 комфорт 1012.5 999.0
01 16.06 ЮВ 1 н/о н/о +19.6 +18.4 93 +23 +23 комфорт 1012.5 999.0
02 16.06 штиль 0 н/о н/о +19.3 +18.3 94 +21 +21 комфорт 1012.5 998.9
03 16.06 СЗ 1 8000 м 3/0
[Ac lent Ci sp]
+18.8 +18.3 97 +21 +21 комфорт 1012.6 999.0
04 16.06 В 1 н/о н/о +20.2 +19.4 95 +25 +25 комфорт 1012.9 999.4
05 16.06 ЮВ 1 н/о н/о +23.2 +20.3 84 +30 +30 очень
душно
1012.9 999.5
06 16.06 Ю 2 10 км 3/0
[Ci sp]
+25.1 +21.0 78 +32 +32 очень
душно
1013.0 999.7 +18.5 0
07 16.06 В 2 н/о н/о +27.3 +20.9 68 +34 +34 очень
душно
1013.0 999.8
08 16.06 ЮВ 3 н/о н/о +29.4 +21.1 61 +37 +37 очень
душно
1013.0 999.9
09 16.06 ЮВ 3 15 км 3/1 1200 м
[Cu hum Cc]
+30.3 +20.8 57 +38 +38 очень
душно
1013.1 1000.0
10 16.06 ЮВ 3
{7}
н/о н/о +31.7 +19.3 48 +37 +37 очень
душно
1012.9 999.9
11 16.06 ЮВ 3 н/о н/о +32.0 +18.6 45 +37 +37 очень
душно
1012.7 999.7
12 16.06 ЮВ 2 20 км 5/5 1500 м
[Cu hum]
+32.4 +18.2 43 +37 +37 очень
душно
1012.0 999.0
13 16.06 Ю 1 н/о н/о +33.4 +17.6 39 +37 +37 очень
душно
1011.3 998.4

 

Местоположение метеостанции Кечкемет (Венгрия): широта 46.92 долгота 19.75 высота над уровнем моря 123 м.

В архиве по умолчанию представлена погода в Кечкемете за последнюю неделю. Архивные данные за месяц целиком и за предыдущие месяцы, начиная с января 2011 года, Вы можете получить, выбрав интересующий диапазон дат из раскрывающегося списка и нажав кнопку "Ввод!".


*Определитесь, кто Вы:
робот инопланетянин человек

Внимание! Время в таблицах - всемирное. Для получения местного времени необходимо прибавить поправку, которая равна 1 ч.

Смотрите также архив погоды в соседних городах и на ближайших метеорологических станциях:

Погода в Сольноке (Венгрия) (43 км)
Погода в Будапеште (Венгрия) (71 км)
Погода в Пакше (Венгрия) (78 км)
Погода в Сегеде (Венгрия) (79 км)
Погода в Агарде (Венгрия) (90 км)
Погода в Паличе (Сербия) (91 км)
Погода в Байе (Венгрия) (99 км)
Погода в Порозло (Венгрия) (105 км)
Погода на Кекеше (Венгрия) (108 км)
Погода в Бекешчабе (Венгрия) (111 км)

Пояснения к столбцам:

Ветер - указаны скорость ветра в м/с - средняя за 10 мин, порывы в срок и между сроками (в фигурных скобках) и направление, откуда дует ветер: С - северный, СВ - северо-восточный, В - восточный, ЮВ - юго-восточный, Ю - южный, ЮЗ - юго-западный, З - западный, СЗ - северо-западный.
Видимость - горизонтальная дальность видимости в метрах или километрах. При видимости от 1 до 10 км при отсутствии осадков обычно наблюдается дымка, при ухудшении видимости до 1 км и менее - туман. В сухую погоду видимость может ухудшаться дымом, пылью или мглою.
Явления - указаны атмосферные явления, наблюдавшиеся в срок или в последний час перед сроком; фигурными скобками обозначены явления, наблюдавшиеся между сроками (за 1-3 часа до срока); квадратными скобками обозначены град или гололедные отложения с указанием их диаметра в мм.
Облачность - указаны через наклонную черту общая и нижняя облачность в баллах и высота нижней границы облаков в метрах; квадратными скобками обозначены формы облаков: Ci - перистые, Cs - перисто-слоистые, Cc - перисто-кучевые, Ac - высококучевые, As - высокослоистые, Sc - слоисто-кучевые, Ns - слоисто-дождевые, Cu - кучевые, Cb - кучево-дождевые. Подробнее классификацию облаков см. в Атласе облаков (PDF).
T - Температура воздуха - температура, измеренная на высоте 2 м над землей.
Td - Температура точки росы - температура, при понижении до которой содержащийся в воздухе водяной пар достигнет насыщения.
f - Относительная влажность воздуха - влажноcть воздуха, измеренная на высоте 2 м над землей.
Te - Эффективная температура - температура, которую ощущает одетый по сезону человек в тени. Характеристика душности погоды. При расчете учитывается влияние влажности воздуха и скорости ветра на теплоощущения человека.
Tes - Эффективная температура на солнце - температура, которую ощущает человек, с поправкой на солнечный нагрев. Характеристика знойности погоды. Зависит от высоты солнца над горизонтом, облачности и скорости ветра. Ночью, в пасмурную погоду, а также при ветре 12 м/с и более поправка равна нулю.
P - Атмосферное давление - приведенное к уровню моря атмосферное давление.
Po - Атмосферное давление - измеренное на уровне метеостанции атмосферное давление.
Tmin - Минимальная температура - минимум температуры воздуха на высоте 2 м над землей.
Tmax - Максимальная температура - максимум температуры воздуха на высоте 2 м над землей.
R - Количество осадков - Количество выпавших осадков за период времени, мм. При наведении курсора мыши на число - период времени, за который выпало указанное количество осадков.
R24 - Количество осадков - Количество выпавших осадков за 24 часа, мм.
S - Снежный покров - Высота снежного покрова, см. При наведении курсора мыши на число - состояние снежного покрова и степень покрытия местности в баллах.